Time,TemperatureF,DewpointF,PressureIn,WindDirection,WindDirectionDegrees,WindSpeedMPH,WindSpeedGustMPH,Humidity,HourlyPrecipIn,Conditions,Clouds,dailyrainin,SoftwareType,DateUTC
2013-06-17 00:02:00,58.0,27.0,-100.00,North,349,23.0,28.0,29,0.00,,,-99.99,,2013-06-17 06:02:00,
2013-06-17 00:12:00,57.0,29.0,-100.00,NNW,347,21.0,30.0,33,0.00,,,-99.99,,2013-06-17 06:12:00,
2013-06-17 00:22:00,56.0,33.0,-100.00,North,350,25.0,31.0,40,0.00,,,-99.99,,2013-06-17 06:22:00,
2013-06-17 00:33:00,56.0,36.0,-100.00,North,357,24.0,30.0,47,0.00,,,-99.99,,2013-06-17 06:33:00,
2013-06-17 00:43:00,55.0,36.0,-100.00,NNW,344,21.0,28.0,47,0.00,,,-99.99,,2013-06-17 06:43:00,
2013-06-17 00:53:00,55.0,39.0,-100.00,NNW,344,23.0,26.0,55,0.00,,,-99.99,,2013-06-17 06:53:00,
2013-06-17 01:02:00,54.0,39.0,-100.00,North,350,24.0,28.0,55,0.00,,,-99.99,,2013-06-17 07:02:00,
2013-06-17 01:12:00,54.0,39.0,-100.00,North,354,21.0,25.0,56,0.00,,,-99.99,,2013-06-17 07:12:00,
2013-06-17 01:22:00,54.0,39.0,-100.00,NNW,346,16.0,19.0,58,0.00,,,-99.99,,2013-06-17 07:22:00,
2013-06-17 01:33:00,53.0,39.0,-100.00,North,357,24.0,27.0,58,0.00,,,-99.99,,2013-06-17 07:33:00,
2013-06-17 01:42:00,53.0,39.0,-100.00,North,3,19.0,25.0,58,0.00,,,-99.99,,2013-06-17 07:42:00,
2013-06-17 01:52:00,53.0,39.0,-100.00,NNW,347,18.0,24.0,59,0.00,,,-99.99,,2013-06-17 07:52:00,
2013-06-17 02:01:00,53.0,39.0,-100.00,North,352,18.0,24.0,59,0.00,,,-99.99,,2013-06-17 08:01:00,
2013-06-17 02:11:00,52.0,39.0,-100.00,North,360,17.0,21.0,60,0.00,,,-99.99,,2013-06-17 08:11:00,
2013-06-17 02:22:00,52.0,39.0,-100.00,North,357,17.0,22.0,60,0.00,,,-99.99,,2013-06-17 08:22:00,
2013-06-17 02:33:00,53.0,38.0,-100.00,North,0,21.0,24.0,59,0.00,,,-99.99,,2013-06-17 08:33:00,
2013-06-17 02:43:00,52.0,38.0,-100.00,North,356,19.0,22.0,59,0.00,,,-99.99,,2013-06-17 08:43:00,
2013-06-17 02:52:00,52.0,38.0,-100.00,North,3,16.0,19.0,59,0.00,,,-99.99,,2013-06-17 08:52:00,
2013-06-17 03:02:00,52.0,38.0,-100.00,North,7,15.0,18.0,59,0.00,,,-99.99,,2013-06-17 09:02:00,
2013-06-17 03:11:00,51.0,38.0,-100.00,NNE,16,15.0,18.0,60,0.00,,,-99.99,,2013-06-17 09:11:00,
2013-06-17 03:22:00,51.0,38.0,-100.00,NNE,13,15.0,19.0,60,0.00,,,-99.99,,2013-06-17 09:22:00,
2013-06-17 03:34:00,51.0,38.0,-100.00,North,11,17.0,21.0,61,0.00,,,-99.99,,2013-06-17 09:34:00,
2013-06-17 03:43:00,50.0,38.0,-100.00,North,10,16.0,19.0,62,0.00,,,-99.99,,2013-06-17 09:43:00,
2013-06-17 03:52:00,50.0,37.0,-100.00,North,8,17.0,22.0,62,0.00,,,-99.99,,2013-06-17 09:52:00,
2013-06-17 04:02:00,50.0,37.0,-100.00,NNE,14,17.0,20.0,61,0.00,,,-99.99,,2013-06-17 10:02:00,
2013-06-17 04:12:00,49.0,37.0,-100.00,North,11,15.0,17.0,63,0.00,,,-99.99,,2013-06-17 10:12:00,
2013-06-17 04:22:00,49.0,37.0,-100.00,NNE,13,14.0,16.0,63,0.00,,,-99.99,,2013-06-17 10:22:00,
2013-06-17 04:33:00,49.0,37.0,-100.00,North,7,16.0,19.0,63,0.00,,,-99.99,,2013-06-17 10:33:00,
2013-06-17 04:43:00,49.0,37.0,-100.00,North,11,13.0,14.0,63,0.00,,,-99.99,,2013-06-17 10:43:00,
2013-06-17 04:53:00,49.0,37.0,-100.00,North,10,11.0,14.0,63,0.00,,,-99.99,,2013-06-17 10:53:00,
2013-06-17 05:02:00,49.0,37.0,-100.00,North,6,12.0,14.0,62,0.00,,,-99.99,,2013-06-17 11:02:00,
2013-06-17 05:12:00,49.0,37.0,-100.00,North,3,12.0,14.0,62,0.00,,,-99.99,,2013-06-17 11:12:00,
2013-06-17 05:23:00,49.0,36.0,-100.00,North,349,12.0,16.0,61,0.00,,,-99.99,,2013-06-17 11:23:00,
2013-06-17 05:33:00,49.0,36.0,-100.00,North,357,11.0,14.0,61,0.00,,,-99.99,,2013-06-17 11:33:00,
2013-06-17 05:43:00,49.0,36.0,-100.00,North,3,11.0,14.0,61,0.00,,,-99.99,,2013-06-17 11:43:00,
2013-06-17 05:53:00,49.0,36.0,-100.00,North,1,12.0,15.0,59,0.00,,,-99.99,,2013-06-17 11:53:00,
2013-06-17 06:02:00,49.0,35.0,-100.00,North,8,9.0,11.0,60,0.00,,,-99.99,,2013-06-17 12:02:00,
2013-06-17 06:11:00,49.0,35.0,-100.00,North,1,9.0,11.0,60,0.00,,,-99.99,,2013-06-17 12:11:00,
2013-06-17 06:22:00,49.0,36.0,-100.00,North,3,10.0,12.0,59,0.00,,,-99.99,,2013-06-17 12:22:00,
2013-06-17 06:33:00,50.0,36.0,-100.00,North,1,9.0,11.0,58,0.00,,,-99.99,,2013-06-17 12:33:00,
2013-06-17 06:43:00,50.0,36.0,-100.00,North,3,9.0,9.0,57,0.00,,,-99.99,,2013-06-17 12:43:00,
2013-06-17 06:53:00,52.0,36.0,-100.00,North,356,9.0,12.0,56,0.00,,,-99.99,,2013-06-17 12:53:00,
2013-06-17 07:01:00,53.0,37.0,-100.00,North,7,9.0,12.0,55,0.00,,,-99.99,,2013-06-17 13:01:00,
2013-06-17 07:22:00,54.0,37.0,-100.00,North,357,9.0,11.0,52,0.00,,,-99.99,,2013-06-17 13:22:00,
2013-06-17 07:32:00,55.0,37.0,-100.00,North,4,9.0,10.0,52,0.00,,,-99.99,,2013-06-17 13:32:00,
2013-06-17 07:43:00,55.0,37.0,-100.00,North,8,8.0,11.0,51,0.00,,,-99.99,,2013-06-17 13:43:00,
2013-06-17 07:52:00,55.0,36.0,-100.00,NNE,20,11.0,12.0,49,0.00,,,-99.99,,2013-06-17 13:52:00,
2013-06-17 08:02:00,56.0,36.0,-100.00,NNE,18,9.0,12.0,48,0.00,,,-99.99,,2013-06-17 14:02:00,
2013-06-17 08:12:00,56.0,36.0,-100.00,NNE,17,9.0,12.0,47,0.00,,,-99.99,,2013-06-17 14:12:00,
2013-06-17 08:22:00,57.0,36.0,-100.00,NNE,20,8.0,11.0,44,0.00,,,-99.99,,2013-06-17 14:22:00,
2013-06-17 08:34:00,57.0,36.0,-100.00,NNE,31,9.0,12.0,45,0.00,,,-99.99,,2013-06-17 14:34:00,
2013-06-17 08:43:00,58.0,36.0,-100.00,NE,34,7.0,10.0,44,0.00,,,-99.99,,2013-06-17 14:43:00,
2013-06-17 08:53:00,58.0,35.0,-100.00,NE,44,6.0,9.0,41,0.00,,,-99.99,,2013-06-17 14:53:00,
2013-06-17 09:01:00,58.0,35.0,-100.00,NE,49,7.0,11.0,41,0.00,,,-99.99,,2013-06-17 15:01:00,
2013-06-17 09:12:00,59.0,34.0,-100.00,ENE,61,9.0,11.0,39,0.00,,,-99.99,,2013-06-17 15:12:00,
2013-06-17 09:22:00,59.0,36.0,-100.00,East,89,7.0,11.0,43,0.00,,,-99.99,,2013-06-17 15:22:00,
2013-06-17 09:33:00,59.0,36.0,-100.00,ENE,58,6.0,11.0,42,0.00,,,-99.99,,2013-06-17 15:33:00,
2013-06-17 09:43:00,60.0,36.0,-100.00,ENE,64,6.0,9.0,41,0.00,,,-99.99,,2013-06-17 15:43:00,
2013-06-17 09:52:00,61.0,35.0,-100.00,NE,52,4.0,8.0,38,0.00,,,-99.99,,2013-06-17 15:52:00,
2013-06-17 10:02:00,61.0,36.0,-100.00,East,85,9.0,12.0,39,0.00,,,-99.99,,2013-06-17 16:02:00,
2013-06-17 10:22:00,62.0,33.0,-100.00,SE,137,6.0,8.0,34,0.00,,,-99.99,,2013-06-17 16:22:00,
2013-06-17 10:33:00,61.0,33.0,-100.00,SSE,151,9.0,11.0,34,0.00,,,-99.99,,2013-06-17 16:33:00,
2013-06-17 10:43:00,62.0,33.0,-100.00,SSE,155,7.0,9.0,34,0.00,,,-99.99,,2013-06-17 16:43:00,
2013-06-17 10:53:00,63.0,32.0,-100.00,SSE,148,4.0,5.0,31,0.00,,,-99.99,,2013-06-17 16:53:00,
2013-06-17 11:02:00,64.0,31.0,-100.00,SSW,192,6.0,9.0,30,0.00,,,-99.99,,2013-06-17 17:02:00,
2013-06-17 11:12:00,64.0,29.0,-100.00,SSW,198,7.0,12.0,26,0.00,,,-99.99,,2013-06-17 17:12:00,
2013-06-17 11:22:00,64.0,29.0,-100.00,SE,134,6.0,7.0,27,0.00,,,-99.99,,2013-06-17 17:22:00,
2013-06-17 11:33:00,65.0,28.0,-100.00,SSE,160,6.0,7.0,25,0.00,,,-99.99,,2013-06-17 17:33:00,
2013-06-17 11:43:00,65.0,29.0,-100.00,SW,232,5.0,9.0,26,0.00,,,-99.99,,2013-06-17 17:43:00,
2013-06-17 11:52:00,66.0,27.0,-100.00,South,181,7.0,10.0,23,0.00,,,-99.99,,2013-06-17 17:52:00,
2013-06-17 12:02:00,66.0,24.0,-100.00,South,175,9.0,11.0,20,0.00,,,-99.99,,2013-06-17 18:02:00,
2013-06-17 12:12:00,67.0,26.0,-100.00,South,185,4.0,8.0,21,0.00,,,-99.99,,2013-06-17 18:12:00,
2013-06-17 12:23:00,65.0,23.0,-100.00,SW,226,10.0,13.0,20,0.00,,,-99.99,,2013-06-17 18:23:00,
2013-06-17 12:33:00,67.0,18.0,-100.00,SW,217,15.0,19.0,15,0.00,,,-99.99,,2013-06-17 18:33:00,
2013-06-17 12:53:00,71.0,21.0,-100.00,South,191,15.0,21.0,15,0.00,,,-99.99,,2013-06-17 18:53:00,
2013-06-17 13:02:00,69.0,18.0,-100.00,SSW,192,18.0,24.0,14,0.00,,,-99.99,,2013-06-17 19:02:00,
2013-06-17 13:11:00,69.0,20.0,-100.00,South,191,12.0,19.0,16,0.00,,,-99.99,,2013-06-17 19:11:00,
2013-06-17 13:22:00,69.0,20.0,-100.00,SW,224,13.0,16.0,16,0.00,,,-99.99,,2013-06-17 19:22:00,
2013-06-17 13:33:00,68.0,20.0,-100.00,South,182,9.0,12.0,15,0.00,,,-99.99,,2013-06-17 19:33:00,
2013-06-17 13:43:00,68.0,20.0,-100.00,SSW,196,10.0,14.0,16,0.00,,,-99.99,,2013-06-17 19:43:00,
2013-06-17 13:53:00,67.0,18.0,-100.00,SW,230,10.0,18.0,15,0.00,,,-99.99,,2013-06-17 19:53:00,
2013-06-17 14:11:00,69.0,18.0,-100.00,SSW,210,12.0,16.0,14,0.00,,,-99.99,,2013-06-17 20:11:00,
2013-06-17 14:22:00,69.0,17.0,-100.00,SSW,195,12.0,16.0,13,0.00,,,-99.99,,2013-06-17 20:22:00,
2013-06-17 14:34:00,71.0,17.0,-100.00,South,186,17.0,23.0,13,0.00,,,-99.99,,2013-06-17 20:34:00,
2013-06-17 14:52:00,69.0,17.0,-100.00,SSW,203,11.0,16.0,13,0.00,,,-99.99,,2013-06-17 20:52:00,
2013-06-17 15:01:00,70.0,17.0,-100.00,South,176,12.0,16.0,13,0.00,,,-99.99,,2013-06-17 21:01:00,
2013-06-17 15:12:00,70.0,18.0,-100.00,SSW,193,10.0,16.0,14,0.00,,,-99.99,,2013-06-17 21:12:00,
2013-06-17 15:22:00,70.0,18.0,-100.00,SW,216,7.0,11.0,14,0.00,,,-99.99,,2013-06-17 21:22:00,
2013-06-17 15:33:00,70.0,19.0,-100.00,WNW,282,16.0,19.0,14,0.00,,,-99.99,,2013-06-17 21:33:00,
2013-06-17 15:43:00,70.0,18.0,-100.00,WSW,237,7.0,12.0,13,0.00,,,-99.99,,2013-06-17 21:43:00,
2013-06-17 15:52:00,70.0,18.0,-100.00,WSW,237,11.0,14.0,14,0.00,,,-99.99,,2013-06-17 21:52:00,
2013-06-17 16:01:00,70.0,17.0,-100.00,WSW,243,9.0,18.0,13,0.00,,,-99.99,,2013-06-17 22:01:00,
2013-06-17 16:11:00,70.0,17.0,-100.00,WSW,247,4.0,9.0,13,0.00,,,-99.99,,2013-06-17 22:11:00,
2013-06-17 16:22:00,71.0,17.0,-100.00,West,263,14.0,19.0,12,0.00,,,-99.99,,2013-06-17 22:22:00,
2013-06-17 16:33:00,72.0,18.0,-100.00,SW,234,10.0,14.0,13,0.00,,,-99.99,,2013-06-17 22:33:00,
2013-06-17 16:43:00,71.0,16.0,-100.00,SW,216,12.0,19.0,12,0.00,,,-99.99,,2013-06-17 22:43:00,
2013-06-17 16:53:00,73.0,17.0,-100.00,SSW,203,4.0,7.0,12,0.00,,,-99.99,,2013-06-17 22:53:00,
2013-06-17 17:02:00,72.0,16.0,-100.00,WSW,240,16.0,21.0,11,0.00,,,-99.99,,2013-06-17 23:02:00,
2013-06-17 17:11:00,71.0,15.0,-100.00,WSW,254,9.0,13.0,11,0.00,,,-99.99,,2013-06-17 23:11:00,
2013-06-17 17:22:00,71.0,15.0,-100.00,West,261,6.0,9.0,11,0.00,,,-99.99,,2013-06-17 23:22:00,
2013-06-17 17:32:00,70.0,14.0,-100.00,SSW,195,4.0,9.0,11,0.00,,,-99.99,,2013-06-17 23:32:00,
2013-06-17 17:42:00,70.0,15.0,-100.00,South,171,6.0,10.0,12,0.00,,,-99.99,,2013-06-17 23:42:00,
2013-06-17 17:52:00,73.0,15.0,-100.00,East,99,1.0,4.0,11,0.00,,,-99.99,,2013-06-17 23:52:00,
2013-06-17 18:01:00,72.0,15.0,-100.00,WNW,288,12.0,17.0,11,0.00,,,-99.99,,2013-06-18 00:01:00,
2013-06-17 18:12:00,71.0,15.0,-100.00,WSW,246,9.0,11.0,12,0.00,,,-99.99,,2013-06-18 00:12:00,
2013-06-17 18:22:00,70.0,15.0,-100.00,SSW,206,9.0,14.0,12,0.00,,,-99.99,,2013-06-18 00:22:00,
2013-06-17 18:33:00,72.0,16.0,-100.00,WSW,251,4.0,7.0,12,0.00,,,-99.99,,2013-06-18 00:33:00,
2013-06-17 18:43:00,71.0,14.0,-100.00,WSW,253,4.0,7.0,11,0.00,,,-99.99,,2013-06-18 00:43:00,
2013-06-17 18:52:00,71.0,14.0,-100.00,WSW,244,6.0,7.0,11,0.00,,,-99.99,,2013-06-18 00:52:00,
2013-06-17 19:01:00,71.0,27.0,-100.00,NW,326,9.0,11.0,19,0.00,,,-99.99,,2013-06-18 01:01:00,
2013-06-17 19:11:00,68.0,24.0,-100.00,North,352,10.0,12.0,19,0.00,,,-99.99,,2013-06-18 01:11:00,
2013-06-17 19:23:00,67.0,27.0,-100.00,North,10,12.0,14.0,21,0.00,,,-99.99,,2013-06-18 01:23:00,
2013-06-17 19:34:00,67.0,27.0,-100.00,North,3,9.0,12.0,22,0.00,,,-99.99,,2013-06-18 01:34:00,
2013-06-17 19:44:00,67.0,27.0,-100.00,North,3,9.0,11.0,22,0.00,,,-99.99,,2013-06-18 01:44:00,
2013-06-17 19:53:00,65.0,29.0,-100.00,NNW,339,18.0,23.0,26,0.00,,,-99.99,,2013-06-18 01:53:00,
2013-06-17 20:02:00,64.0,30.0,-100.00,North,350,19.0,24.0,27,0.00,,,-99.99,,2013-06-18 02:02:00,
2013-06-17 20:11:00,64.0,30.0,-100.00,North,359,18.0,21.0,27,0.00,,,-99.99,,2013-06-18 02:11:00,
2013-06-17 20:22:00,64.0,30.0,-100.00,North,356,16.0,18.0,27,0.00,,,-99.99,,2013-06-18 02:22:00,
2013-06-17 20:34:00,63.0,30.0,-100.00,North,3,15.0,18.0,28,0.00,,,-99.99,,2013-06-18 02:34:00,
2013-06-17 20:43:00,63.0,30.0,-100.00,North,356,17.0,21.0,28,0.00,,,-99.99,,2013-06-18 02:43:00,
2013-06-17 20:53:00,62.0,30.0,-100.00,NNW,342,13.0,17.0,30,0.00,,,-99.99,,2013-06-18 02:53:00,
2013-06-17 21:02:00,61.0,29.0,-100.00,North,350,14.0,17.0,30,0.00,,,-99.99,,2013-06-18 03:02:00,
2013-06-17 21:12:00,61.0,30.0,-100.00,NNW,344,14.0,17.0,30,0.00,,,-99.99,,2013-06-18 03:12:00,
2013-06-17 21:23:00,61.0,29.0,-100.00,NNW,347,16.0,19.0,29,0.00,,,-99.99,,2013-06-18 03:23:00,
2013-06-17 21:34:00,61.0,28.0,-100.00,NNW,344,16.0,19.0,29,0.00,,,-99.99,,2013-06-18 03:34:00,
2013-06-17 21:43:00,61.0,28.0,-100.00,NNW,342,16.0,20.0,29,0.00,,,-99.99,,2013-06-18 03:43:00,
2013-06-17 21:53:00,61.0,28.0,-100.00,North,356,14.0,16.0,29,0.00,,,-99.99,,2013-06-18 03:53:00,
2013-06-17 22:02:00,60.0,28.0,-100.00,NNW,346,14.0,17.0,29,0.00,,,-99.99,,2013-06-18 04:02:00,
2013-06-17 22:12:00,60.0,28.0,-100.00,North,352,14.0,16.0,29,0.00,,,-99.99,,2013-06-18 04:12:00,
2013-06-17 22:22:00,60.0,27.0,-100.00,North,353,14.0,17.0,29,0.00,,,-99.99,,2013-06-18 04:22:00,
2013-06-17 22:34:00,60.0,28.0,-100.00,North,349,14.0,16.0,29,0.00,,,-99.99,,2013-06-18 04:34:00,
2013-06-17 22:43:00,60.0,28.0,-100.00,NNW,342,15.0,19.0,30,0.00,,,-99.99,,2013-06-18 04:43:00,
2013-06-17 22:53:00,60.0,27.0,-100.00,NNW,347,16.0,18.0,28,0.00,,,-99.99,,2013-06-18 04:53:00,
2013-06-17 23:02:00,60.0,27.0,-100.00,NNW,347,14.0,17.0,29,0.00,,,-99.99,,2013-06-18 05:02:00,
2013-06-17 23:12:00,60.0,27.0,-100.00,NNW,347,15.0,17.0,29,0.00,,,-99.99,,2013-06-18 05:12:00,
2013-06-17 23:22:00,58.0,28.0,-100.00,NNE,16,12.0,15.0,31,0.00,,,-99.99,,2013-06-18 05:22:00,
2013-06-17 23:33:00,58.0,29.0,-100.00,North,3,15.0,18.0,33,0.00,,,-99.99,,2013-06-18 05:33:00,
2013-06-17 23:43:00,58.0,29.0,-100.00,North,359,16.0,18.0,33,0.00,,,-99.99,,2013-06-18 05:43:00,
2013-06-17 23:53:00,58.0,29.0,-100.00,North,350,12.0,14.0,34,0.00,,,-99.99,,2013-06-18 05:53:00,